sat.trackr.live / text

‹ back to catalog

STARLINK-31356

NORAD 58968 · 2024-031D

PAYLOAD ACTIVE UNKNOWN

§ Identity

Operator
Country
US
Launch date
2024-02-15
Launch site
AFWTR
Launch vehicle
Mass (kg)
RCS (m²)

Purposes: comms

External: N2YO · Heavens-Above · Gunter

§ Orbital elements

Epoch: 2026-09-19T20:05:58.042176Z

Period
93.85 min
Inclination
53.1592°
Eccentricity
0.0000776
Mean motion
15.34386188 rev/d
Perigee alt
462.2 km
Apogee alt
463.3 km
Semi-major
6,840.9 km
B*
1.0222e-5
RAAN
84.4953°
Arg perigee
96.8201°
Mean anomaly
263.2890°
Rev number
14,668

§ Raw data

STARLINK-313561 58968U 24031D   26262.83747734 -.00000031  00000+0  10222-4 0  99922 58968  53.1592  84.4953 0000776  96.8201 263.2890 15.34386188146684

JSON: /api/v1/satellites/58968 · /tle

For live sub-satellite position, see the globe view (requires WebGL).

§ Visibility from observer

Set your observer location to see the next 7 days of passes ≥ 10°. The values pass through the URL so the page stays shareable.

No JS? Fill the form by hand. The geolocation button needs JavaScript.